Location: ?????????
(41.2286°N, 23.0068°E)
Time: 08:54:51
(UTC+00:00)

USA 234 - Pass Details

Date: 08 November 2025
Orbit: 1100 x 1107 km, 123.0° (Epoch: 02 December)

Event Time Altitude Azimuth Distance (km) Brightness Sun altitude
Rises 02:01:52 0° 113° (ESE) 3,919 6.9 -35.1°
Reaches altitude 10° 02:04:24 10° 109° (ESE) 2,962 6.2 -34.6°
Maximum altitude 02:10:44 55° 34° (NE) 1,311 3.7 -33.5°
Enters shadow 02:11:31 52° 8° (N) 1,352 3.7 -33.3°
